Time,TemperatureF,DewpointF,PressureIn,WindDirection,WindDirectionDegrees,WindSpeedMPH,WindSpeedGustMPH,Humidity,HourlyPrecipIn,Conditions,Clouds,dailyrainin,SolarRadiationWatts/m^2,SoftwareType,DateUTC
2013-04-08 00:02:00,34.0,27.0,-100.00,ESE,112,3.0,6.0,75,0.00,,,0.00,0.000000,,2013-04-08 06:02:00,
2013-04-08 00:12:00,34.0,27.0,-100.00,ESE,112,3.0,6.0,75,0.00,,,0.00,0.000000,,2013-04-08 06:12:00,
2013-04-08 00:22:00,33.0,26.0,-100.00,SE,129,3.0,7.0,76,0.00,,,0.00,0.000000,,2013-04-08 06:22:00,
2013-04-08 00:43:00,33.0,26.0,-100.00,SE,129,3.0,7.0,76,0.00,,,0.00,0.000000,,2013-04-08 06:43:00,
2013-04-08 00:52:00,33.0,26.0,-100.00,SE,129,3.0,7.0,76,0.00,,,0.00,0.000000,,2013-04-08 06:52:00,
2013-04-08 01:02:00,33.0,26.0,-100.00,SE,129,3.0,7.0,76,0.00,,,0.00,0.000000,,2013-04-08 07:02:00,
2013-04-08 01:12:00,33.0,26.0,-100.00,SE,129,3.0,7.0,76,0.00,,,0.00,0.000000,,2013-04-08 07:12:00,
2013-04-08 01:22:00,33.0,26.0,-100.00,ESE,122,3.0,5.0,75,0.00,,,0.00,0.000000,,2013-04-08 07:22:00,
2013-04-08 01:42:00,33.0,26.0,-100.00,ESE,122,3.0,5.0,75,0.00,,,0.00,0.000000,,2013-04-08 07:42:00,
2013-04-08 01:52:00,33.0,26.0,-100.00,ESE,122,3.0,5.0,75,0.00,,,0.00,0.000000,,2013-04-08 07:52:00,
2013-04-08 02:02:00,33.0,26.0,-100.00,ESE,122,3.0,5.0,75,0.00,,,0.00,0.000000,,2013-04-08 08:02:00,
2013-04-08 02:12:00,33.0,26.0,-100.00,ESE,122,3.0,5.0,75,0.00,,,0.00,0.000000,,2013-04-08 08:12:00,
2013-04-08 02:22:00,33.0,25.0,-100.00,ESE,111,2.0,4.0,71,0.00,,,0.00,0.000000,,2013-04-08 08:22:00,
2013-04-08 02:43:00,33.0,25.0,-100.00,ESE,111,2.0,4.0,71,0.00,,,0.00,0.000000,,2013-04-08 08:43:00,
2013-04-08 02:52:00,33.0,25.0,-100.00,ESE,111,2.0,4.0,71,0.00,,,0.00,0.000000,,2013-04-08 08:52:00,
2013-04-08 03:02:00,33.0,25.0,-100.00,ESE,111,2.0,4.0,71,0.00,,,0.00,0.000000,,2013-04-08 09:02:00,
2013-04-08 03:12:00,33.0,25.0,-100.00,ESE,111,2.0,4.0,71,0.00,,,0.00,0.000000,,2013-04-08 09:12:00,
2013-04-08 03:22:00,31.0,23.0,-100.00,ENE,65,3.0,5.0,73,0.00,,,0.00,0.000000,,2013-04-08 09:22:00,
2013-04-08 03:43:00,31.0,23.0,-100.00,ENE,65,3.0,5.0,73,0.00,,,0.00,0.000000,,2013-04-08 09:43:00,
2013-04-08 03:53:00,31.0,23.0,-100.00,ENE,65,3.0,5.0,73,0.00,,,0.00,0.000000,,2013-04-08 09:53:00,
2013-04-08 04:03:00,31.0,23.0,-100.00,ENE,65,3.0,5.0,73,0.00,,,0.00,0.000000,,2013-04-08 10:03:00,
2013-04-08 04:13:00,31.0,23.0,-100.00,ENE,65,3.0,5.0,73,0.00,,,0.00,0.000000,,2013-04-08 10:13:00,
2013-04-08 04:22:00,32.0,22.0,-100.00,East,90,3.0,7.0,66,0.00,,,0.00,0.000000,,2013-04-08 10:22:00,
2013-04-08 04:43:00,32.0,22.0,-100.00,East,90,3.0,7.0,66,0.00,,,0.00,0.000000,,2013-04-08 10:43:00,
2013-04-08 04:53:00,32.0,22.0,-100.00,East,90,3.0,7.0,66,0.00,,,0.00,0.000000,,2013-04-08 10:53:00,
2013-04-08 05:02:00,32.0,22.0,-100.00,East,90,3.0,7.0,66,0.00,,,0.00,0.000000,,2013-04-08 11:02:00,
2013-04-08 05:12:00,32.0,22.0,-100.00,East,90,3.0,7.0,66,0.00,,,0.00,0.000000,,2013-04-08 11:12:00,
2013-04-08 05:22:00,32.0,20.0,-100.00,ESE,110,2.0,4.0,62,0.00,,,0.00,0.000000,,2013-04-08 11:22:00,
2013-04-08 05:43:00,32.0,20.0,-100.00,ESE,110,2.0,4.0,62,0.00,,,0.00,0.000000,,2013-04-08 11:43:00,
2013-04-08 05:53:00,32.0,20.0,-100.00,ESE,110,2.0,4.0,62,0.00,,,0.00,0.000000,,2013-04-08 11:53:00,
2013-04-08 06:03:00,32.0,20.0,-100.00,ESE,110,2.0,4.0,62,0.00,,,0.00,0.000000,,2013-04-08 12:03:00,
2013-04-08 06:12:00,32.0,20.0,-100.00,ESE,110,2.0,4.0,62,0.00,,,0.00,0.000000,,2013-04-08 12:12:00,
2013-04-08 06:22:00,32.0,20.0,-100.00,ENE,73,2.0,4.0,60,0.00,,,0.00,0.000000,,2013-04-08 12:22:00,
2013-04-08 06:53:00,32.0,20.0,-100.00,ENE,73,2.0,4.0,60,0.00,,,0.00,0.000000,,2013-04-08 12:53:00,
2013-04-08 07:03:00,32.0,20.0,-100.00,ENE,73,2.0,4.0,60,0.00,,,0.00,0.000000,,2013-04-08 13:03:00,
2013-04-08 07:12:00,32.0,20.0,-100.00,ENE,73,2.0,4.0,60,0.00,,,0.00,0.000000,,2013-04-08 13:12:00,
2013-04-08 07:22:00,35.0,17.0,-100.00,ESE,106,3.0,6.0,48,0.00,,,0.00,10.000000,,2013-04-08 13:22:00,
2013-04-08 07:43:00,35.0,17.0,-100.00,ESE,106,3.0,6.0,48,0.00,,,0.00,10.000000,,2013-04-08 13:43:00,
2013-04-08 07:52:00,35.0,17.0,-100.00,ESE,106,3.0,6.0,48,0.00,,,0.00,10.000000,,2013-04-08 13:52:00,
2013-04-08 08:03:00,35.0,17.0,-100.00,ESE,106,3.0,6.0,48,0.00,,,0.00,10.000000,,2013-04-08 14:03:00,
2013-04-08 08:12:00,35.0,17.0,-100.00,ESE,106,3.0,6.0,48,0.00,,,0.00,10.000000,,2013-04-08 14:12:00,
2013-04-08 08:22:00,38.0,18.0,-100.00,East,91,2.0,5.0,43,0.00,,,0.00,87.000000,,2013-04-08 14:22:00,
2013-04-08 08:43:00,38.0,18.0,-100.00,East,91,2.0,5.0,43,0.00,,,0.00,87.000000,,2013-04-08 14:43:00,
2013-04-08 08:52:00,38.0,18.0,-100.00,East,91,2.0,5.0,43,0.00,,,0.00,87.000000,,2013-04-08 14:52:00,
2013-04-08 09:02:00,38.0,18.0,-100.00,East,91,2.0,5.0,43,0.00,,,0.00,87.000000,,2013-04-08 15:02:00,
2013-04-08 09:12:00,38.0,18.0,-100.00,East,91,2.0,5.0,43,0.00,,,0.00,87.000000,,2013-04-08 15:12:00,
2013-04-08 09:22:00,44.0,17.0,-100.00,SE,145,7.0,12.0,34,0.00,,,0.00,307.000000,,2013-04-08 15:22:00,
2013-04-08 09:43:00,44.0,17.0,-100.00,SE,145,7.0,12.0,34,0.00,,,0.00,307.000000,,2013-04-08 15:43:00,
2013-04-08 09:53:00,44.0,17.0,-100.00,SE,145,7.0,12.0,34,0.00,,,0.00,307.000000,,2013-04-08 15:53:00,
2013-04-08 10:03:00,44.0,17.0,-100.00,SE,145,7.0,12.0,34,0.00,,,0.00,307.000000,,2013-04-08 16:03:00,
2013-04-08 10:13:00,44.0,17.0,-100.00,SE,145,7.0,12.0,34,0.00,,,0.00,307.000000,,2013-04-08 16:13:00,
2013-04-08 10:22:00,48.0,17.0,-100.00,South,180,7.0,15.0,29,0.00,,,0.00,649.000000,,2013-04-08 16:22:00,
2013-04-08 10:53:00,48.0,17.0,-100.00,South,180,7.0,15.0,29,0.00,,,0.00,649.000000,,2013-04-08 16:53:00,
2013-04-08 11:03:00,48.0,17.0,-100.00,South,180,7.0,15.0,29,0.00,,,0.00,649.000000,,2013-04-08 17:03:00,
2013-04-08 11:12:00,48.0,17.0,-100.00,South,180,7.0,15.0,29,0.00,,,0.00,649.000000,,2013-04-08 17:12:00,
2013-04-08 11:22:00,52.0,16.0,-100.00,SSE,160,7.0,13.0,24,0.00,,,0.00,964.000000,,2013-04-08 17:22:00,
2013-04-08 11:45:00,52.0,16.0,-100.00,SSE,160,7.0,13.0,24,0.00,,,0.00,964.000000,,2013-04-08 17:45:00,
2013-04-08 11:52:00,52.0,16.0,-100.00,SSE,160,7.0,13.0,24,0.00,,,0.00,964.000000,,2013-04-08 17:52:00,
2013-04-08 12:02:00,52.0,16.0,-100.00,SSE,160,7.0,13.0,24,0.00,,,0.00,964.000000,,2013-04-08 18:02:00,
2013-04-08 12:12:00,52.0,16.0,-100.00,SSE,160,7.0,13.0,24,0.00,,,0.00,964.000000,,2013-04-08 18:12:00,
2013-04-08 12:22:00,51.0,17.0,-100.00,SE,143,7.0,14.0,26,0.00,,,0.00,825.000000,,2013-04-08 18:22:00,
2013-04-08 12:42:00,51.0,17.0,-100.00,SE,143,7.0,14.0,26,0.00,,,0.00,825.000000,,2013-04-08 18:42:00,
2013-04-08 12:52:00,51.0,17.0,-100.00,SE,143,7.0,14.0,26,0.00,,,0.00,825.000000,,2013-04-08 18:52:00,
2013-04-08 13:02:00,51.0,17.0,-100.00,SE,143,7.0,14.0,26,0.00,,,0.00,825.000000,,2013-04-08 19:02:00,
2013-04-08 13:12:00,51.0,17.0,-100.00,SE,143,7.0,14.0,26,0.00,,,0.00,825.000000,,2013-04-08 19:12:00,
2013-04-08 13:22:00,53.0,15.0,-100.00,SSW,194,8.0,16.0,22,0.00,,,0.00,1138.000000,,2013-04-08 19:22:00,
2013-04-08 13:43:00,53.0,15.0,-100.00,SSW,194,8.0,16.0,22,0.00,,,0.00,1138.000000,,2013-04-08 19:43:00,
2013-04-08 13:52:00,53.0,15.0,-100.00,SSW,194,8.0,16.0,22,0.00,,,0.00,1138.000000,,2013-04-08 19:52:00,
2013-04-08 14:02:00,53.0,15.0,-100.00,SSW,194,8.0,16.0,22,0.00,,,0.00,1138.000000,,2013-04-08 20:02:00,
2013-04-08 14:12:00,53.0,15.0,-100.00,SSW,194,8.0,16.0,22,0.00,,,0.00,1138.000000,,2013-04-08 20:12:00,
2013-04-08 14:22:00,53.0,18.0,-100.00,SSW,195,7.0,17.0,25,0.00,,,0.00,1130.000000,,2013-04-08 20:22:00,
2013-04-08 14:43:00,53.0,18.0,-100.00,SSW,195,7.0,17.0,25,0.00,,,0.00,1130.000000,,2013-04-08 20:43:00,
2013-04-08 14:52:00,53.0,18.0,-100.00,SSW,195,7.0,17.0,25,0.00,,,0.00,1130.000000,,2013-04-08 20:52:00,
2013-04-08 15:02:00,53.0,18.0,-100.00,SSW,195,7.0,17.0,25,0.00,,,0.00,1130.000000,,2013-04-08 21:02:00,
2013-04-08 15:12:00,53.0,18.0,-100.00,SSW,195,7.0,17.0,25,0.00,,,0.00,1130.000000,,2013-04-08 21:12:00,
2013-04-08 15:22:00,52.0,17.0,-100.00,South,186,7.0,14.0,25,0.00,,,0.00,647.000000,,2013-04-08 21:22:00,
2013-04-08 15:43:00,52.0,17.0,-100.00,South,186,7.0,14.0,25,0.00,,,0.00,647.000000,,2013-04-08 21:43:00,
2013-04-08 15:53:00,52.0,17.0,-100.00,South,186,7.0,14.0,25,0.00,,,0.00,647.000000,,2013-04-08 21:53:00,
2013-04-08 16:03:00,52.0,17.0,-100.00,South,186,7.0,14.0,25,0.00,,,0.00,647.000000,,2013-04-08 22:03:00,
2013-04-08 16:13:00,52.0,17.0,-100.00,South,186,7.0,14.0,25,0.00,,,0.00,647.000000,,2013-04-08 22:13:00,
2013-04-08 16:22:00,43.0,24.0,-100.00,SE,144,9.0,16.0,47,0.00,,,0.00,383.000000,,2013-04-08 22:22:00,
2013-04-08 16:43:00,43.0,24.0,-100.00,SE,144,9.0,16.0,47,0.00,,,0.00,383.000000,,2013-04-08 22:43:00,
2013-04-08 16:53:00,43.0,24.0,-100.00,SE,144,9.0,16.0,47,0.00,,,0.00,383.000000,,2013-04-08 22:53:00,
2013-04-08 17:02:00,43.0,24.0,-100.00,SE,144,9.0,16.0,47,0.00,,,0.00,383.000000,,2013-04-08 23:02:00,
2013-04-08 17:12:00,43.0,24.0,-100.00,SE,144,9.0,16.0,47,0.00,,,0.00,383.000000,,2013-04-08 23:12:00,
2013-04-08 17:22:00,38.0,33.0,-100.00,SE,127,2.0,12.0,83,0.00,,,0.00,91.000000,,2013-04-08 23:22:00,
2013-04-08 17:43:00,38.0,33.0,-100.00,SE,127,2.0,12.0,83,0.00,,,0.00,91.000000,,2013-04-08 23:43:00,
2013-04-08 17:52:00,38.0,33.0,-100.00,SE,127,2.0,12.0,83,0.00,,,0.00,91.000000,,2013-04-08 23:52:00,
2013-04-08 18:02:00,38.0,33.0,-100.00,SE,127,2.0,12.0,83,0.00,,,0.00,91.000000,,2013-04-09 00:02:00,
2013-04-08 18:12:00,38.0,33.0,-100.00,SE,127,2.0,12.0,83,0.00,,,0.00,91.000000,,2013-04-09 00:12:00,
2013-04-08 18:22:00,37.0,30.0,-100.00,South,177,5.0,10.0,75,0.00,,,0.00,49.000000,,2013-04-09 00:22:00,
2013-04-08 18:42:00,37.0,30.0,-100.00,South,177,5.0,10.0,75,0.00,,,0.00,49.000000,,2013-04-09 00:42:00,
2013-04-08 18:52:00,37.0,30.0,-100.00,South,177,5.0,10.0,75,0.00,,,0.00,49.000000,,2013-04-09 00:52:00,
2013-04-08 19:02:00,37.0,30.0,-100.00,South,177,5.0,10.0,75,0.00,,,0.00,49.000000,,2013-04-09 01:02:00,
2013-04-08 19:12:00,37.0,30.0,-100.00,South,177,5.0,10.0,75,0.00,,,0.00,49.000000,,2013-04-09 01:12:00,
2013-04-08 19:22:00,38.0,29.0,-100.00,South,183,4.0,10.0,71,0.00,,,0.00,46.000000,,2013-04-09 01:22:00,
2013-04-08 19:42:00,38.0,29.0,-100.00,South,183,4.0,10.0,71,0.00,,,0.00,46.000000,,2013-04-09 01:42:00,
2013-04-08 19:52:00,38.0,29.0,-100.00,South,183,4.0,10.0,71,0.00,,,0.00,46.000000,,2013-04-09 01:52:00,
2013-04-08 20:02:00,38.0,29.0,-100.00,South,183,4.0,10.0,71,0.00,,,0.00,46.000000,,2013-04-09 02:02:00,
2013-04-08 20:12:00,38.0,29.0,-100.00,South,183,4.0,10.0,71,0.00,,,0.00,46.000000,,2013-04-09 02:12:00,
2013-04-08 20:44:00,38.0,30.0,-100.00,East,93,3.0,8.0,74,0.00,,,0.00,2.000000,,2013-04-09 02:44:00,
2013-04-08 20:52:00,38.0,30.0,-100.00,East,93,3.0,8.0,74,0.00,,,0.00,2.000000,,2013-04-09 02:52:00,
2013-04-08 21:02:00,38.0,30.0,-100.00,East,93,3.0,8.0,74,0.00,,,0.00,2.000000,,2013-04-09 03:02:00,
2013-04-08 21:12:00,38.0,30.0,-100.00,East,93,3.0,8.0,74,0.00,,,0.00,2.000000,,2013-04-09 03:12:00,
2013-04-08 21:21:00,38.0,30.0,-100.00,East,93,3.0,8.0,74,0.00,,,0.00,2.000000,,2013-04-09 03:21:00,
2013-04-08 21:22:00,37.0,27.0,-100.00,ESE,122,2.0,5.0,68,0.00,,,0.00,0.000000,,2013-04-09 03:22:00,
2013-04-08 21:43:00,37.0,27.0,-100.00,ESE,122,2.0,5.0,68,0.00,,,0.00,0.000000,,2013-04-09 03:43:00,
2013-04-08 21:53:00,37.0,27.0,-100.00,ESE,122,2.0,5.0,68,0.00,,,0.00,0.000000,,2013-04-09 03:53:00,
2013-04-08 22:03:00,37.0,27.0,-100.00,ESE,122,2.0,5.0,68,0.00,,,0.00,0.000000,,2013-04-09 04:03:00,
2013-04-08 22:13:00,37.0,27.0,-100.00,ESE,122,2.0,5.0,68,0.00,,,0.00,0.000000,,2013-04-09 04:13:00,
2013-04-08 22:22:00,40.0,19.0,-100.00,South,171,4.0,6.0,42,0.00,,,0.00,0.000000,,2013-04-09 04:22:00,
2013-04-08 22:43:00,40.0,19.0,-100.00,South,171,4.0,6.0,42,0.00,,,0.00,0.000000,,2013-04-09 04:43:00,
2013-04-08 22:53:00,40.0,19.0,-100.00,South,171,4.0,6.0,42,0.00,,,0.00,0.000000,,2013-04-09 04:53:00,
2013-04-08 23:02:00,40.0,19.0,-100.00,South,171,4.0,6.0,42,0.00,,,0.00,0.000000,,2013-04-09 05:02:00,
2013-04-08 23:12:00,40.0,19.0,-100.00,South,171,4.0,6.0,42,0.00,,,0.00,0.000000,,2013-04-09 05:12:00,
2013-04-08 23:22:00,41.0,19.0,-100.00,SSE,167,5.0,8.0,40,0.00,,,0.00,0.000000,,2013-04-09 05:22:00,
2013-04-08 23:43:00,41.0,19.0,-100.00,SSE,167,5.0,8.0,40,0.00,,,0.00,0.000000,,2013-04-09 05:43:00,
2013-04-08 23:52:00,41.0,19.0,-100.00,SSE,167,5.0,8.0,40,0.00,,,0.00,0.000000,,2013-04-09 05:52:00,